Flag for Austria Weather for the Past 2 Weeks in Waidhofen an der Thaya, Lower Austria, Austria

Now
37 °F

Chilly.


Feels Like: 34 °F
Forecast: 32 / 40 °F
Wind: 5 mph from West

Location: Retz

Current Time: Feb 10, 2016 at 9:09:11 PM

Latest Report: Feb 10, 2016 at 8:00 PM


Visibility: N/A

Pressure: 29.47 "Hg (27.68 "Hg at 506m altitude)

Humidity: 67%

Dew point: 28 °F

Location of Waidhofen an der ThayaLocation

Historic Weather in Waidhofen an der Thaya — Graph

°F

Waidhofen an der Thaya Temperature Yesterday

Maximum temperature yesterday: 52 °F (at 1:00 PM)
Minimum temperature yesterday: 40 °F (at 8:00 AM)
Average temperature yesterday: 48 °F

High & Low Weather Summary for the Past Weeks

 TemperatureHumidityPressure
High57 °F (Jan 28, 1:00 PM)99% (Jan 29, 4:00 AM)30.40 "Hg (Jan 29, 4:00 AM)
Low34 °F (Feb 4, 11:00 PM)52% (Jan 29, 4:00 PM)29.26 "Hg (Feb 10, 12:00 AM)
Average43 °F78%30.01 "Hg
* Reported Jan 26 7:00 PM — Feb 10 7:00 PM, Waidhofen an der Thaya, Weather by CustomWeather, © 2016

Note: Actual official high and low records may vary slightly from our data, if they occured in-between our weather recording intervals... More about our weather records

Advertising

Waidhofen an der Thaya Weather History for the Previous 24 Hours

 ConditionsComfort  
Time TempWeatherWind HumidityBarometerVisibility
7:00 PM
Wed, Feb 10
38 °FPassing clouds.6 mph66%29.44 "Hg8 mi
6:00 PM39 °FChilly.8 mph62%29.44 "HgN/A
5:00 PM40 °FChilly.8 mph65%29.41 "HgN/A
4:00 PM40 °FQuite cool.7 mph68%29.38 "HgN/A
3:00 PM40 °FChilly.8 mph72%29.38 "HgN/A
2:00 PM41 °FQuite cool.7 mph76%29.35 "HgN/A
1:00 PM40 °FOvercast.7 mph80%29.35 "Hg17 mi
12:00 PM39 °FChilly.8 mph83%29.32 "HgN/A
11:00 AM38 °FChilly.9 mph85%29.32 "HgN/A
10:00 AM39 °FChilly.8 mph89%29.32 "HgN/A
9:00 AM39 °FChilly.8 mph89%29.32 "HgN/A
8:00 AM38 °FChilly.7 mph89%29.32 "HgN/A
7:00 AM40 °FLight rain. Overcast.6 mph83%29.32 "Hg5 mi
5:00 AM40 °FQuite cool.2 mph88%29.29 "HgN/A
4:00 AM41 °FQuite cool.3 mph87%29.29 "HgN/A
3:00 AM42 °FFog.7 mph88%29.29 "HgN/A
1:00 AM47 °FFog.1 mph78%29.26 "HgN/A
12:00 AM48 °FCool.No wind73%29.26 "HgN/A
11:00 PM
Tue, Feb 9
46 °FCool.3 mph78%29.29 "HgN/A
10:00 PM49 °FCool.1 mph68%29.29 "HgN/A
9:00 PM48 °FCool.2 mph69%29.29 "HgN/A
Weather by CustomWeather, © 2016

See weather overviewHow to use our weather pages